Regional Weather Roundup
Issued by NWS

Home | Current Version | Previous Version | Graphics & Text | Print | Product List | Glossary On
Versions: 1 2 3 4 5 6 7 8 9 10 11 12 13 14 15 16 17 18 19 20 21 22 23 24 25 26 27 28
000
ASUS45 KTFX 051810
RWRMT
MONTANA REGIONAL WEATHER ROUNDUP
NATIONAL WEATHER SERVICE GREAT FALLS MT
1100 AM MST MON DEC 05 2016

NOTE: "FAIR" INDICATES FEW OR NO CLOUDS BELOW 12000 FEET WITH NO
SIGNIFICANT WEATHER AND/OR OBSTRUCTIONS TO VISIBILITY.

MTZ001>007-043-051900-
WEST OF THE DIVIDE

CITY           SKY/WX    TMP DP  RH WIND       PRES   REMARKS
KALISPELL      CLOUDY    23  15  71 S7        30.00R WCI  15
MISSOULA       CLOUDY    28   9  44 CALM      30.04
BUTTE          CLOUDY    18   1  47 VRB6      29.90  WCI  10
MULLAN PASS    MOSUNNY   11   8  88 VRB6      29.85R WCI   1
ANACONDA         N/A     19   0  42 W12G18    29.93R WCI   7
DEER LODGE       N/A     21   7  53 E8        29.96R WCI  12
EUREKA           N/A     21  19  93 SE6       30.02R VSB 1/4 WCI  14
HAMILTON         N/A     27   9  46 S8        30.03R WCI  18
LIBBY            N/A     27  21  80 CALM      30.02S
PLAINS           N/A     27  15  60 CALM      30.05R
RONAN            N/A     26   9  48 CALM      30.04S
$$

MTZ008-052>055-051900-
SOUTHWEST MONTANA

CITY           SKY/WX    TMP DP  RH WIND       PRES   REMARKS
BOZEMAN        CLOUDY    21  11  65 W7        29.95R WCI  12
DILLON         SUNNY     20   1  43 SW15      29.92  WCI   6
W YELLOWSTONE  MOSUNNY   10  -4  52 W5        29.85R
ENNIS          PTSUNNY   18   1  49 W15       29.96S WCI   3
THREE FORKS      N/A     22 -46   4 CALM      29.95R
TWIN BRIDGES     N/A     21  -4  33 SW3       29.93R
$$

MTZ009-010-012-014-046-048-049-054-051900-
EAST SLOPES AND CENTRAL MONTANA

CITY           SKY/WX    TMP DP  RH WIND       PRES   REMARKS
CUT BANK       CLOUDY     7   1  76 NW18      30.01R WCI -12
GREAT FALLS    CLOUDY    13   5  70 NW9       30.03  WCI   1
MALMSTROM AFB  PTSUNNY   12   5  72 N9        30.05R WCI   0
HELENA         LGT SNOW  21  14  74 CALM      29.97S
AUGUSTA        FLURRIES   7   3  82 N9        29.97R WCI  -6
BOWMANS CRNR   SNOWSHWR   9   4  83 N8        29.96R WCI  -4
CHOTEAU          N/A     10   3  72 N12       30.03R WCI  -4
CONRAD           N/A     10   4  77 NW14      30.03R WCI  -6
FAIRFIELD      FLURRIES  10   3  73 NW10      30.00R WCI  -4
POWER          PTSUNNY    9   2  74 NW15      30.00R WCI  -8
RAYNESFORD     FLURRIES  10   6  85 W7        30.00R WCI  -2
ULM            PTSUNNY   13   6  72 N14       30.04R WCI  -2
$$

MTZ011-013-016-021-045-047-050-051-051900-
NORTH CENTRAL MONTANA

CITY           SKY/WX    TMP DP  RH WIND       PRES   REMARKS
HAVRE          CLOUDY     9   1  70 NW17      30.07R WCI  -9
LEWISTOWN      CLOUDY    10   5  80 W13       29.93R WCI  -5
N BAR RANCH      N/A     12   3  67 NW24G33   29.83S WCI  -8
CHINOOK          N/A      9   0  66 W18G29    30.05R WCI -10
DENTON         LGT SNOW   9   5  84 NW10G26   29.95R WCI  -5
GEYSER         PTSUNNY   11   4  74 W26G32    29.94R WCI -10
GRASS RANGE      N/A     13   7  78 W29G44    29.85R WCI  -8
JUDITH GAP       N/A      9   3  78 MISG      29.87R
ROY              N/A     10   5  82 MISG      29.87R
STANFORD         N/A     11   4  74 NW21G29   29.91R WCI  -8
WINIFRED       FLURRIES   8   4  85 MISG      29.94R
$$

MTZ017>020-022>027-061-062-051900-
NORTHEAST MONTANA

CITY           SKY/WX    TMP DP  RH WIND       PRES   REMARKS
GLASGOW        CLOUDY    11   3  70 NW32G41   29.90R WCI -12
JORDAN           N/A     15   9  76 NW21      29.90R WCI  -2
SIDNEY         SNOW      19  15  84 NW32G41   29.73S VSB 1/2 WCI  -1
WOLF POINT     SNOW      16   9  74 NW28G38   29.87R VSB 1/2 WCI  -4
PLENTYWOOD       N/A     14  12  92 NW33G43   29.70S VSB 0   WCI  -8
POPLAR           N/A     18  10  73 NW20G25   29.83R WCI   1
$$

MTZ028>42-056>058-051900-
SOUTHCENTRAL AND SOUTHEAST MONTANA

CITY           SKY/WX    TMP DP  RH WIND       PRES   REMARKS
BAKER          FLURRIES  22  15  75 NW26G41   29.71R WCI   5
BILLINGS       CLOUDY    22   6  50 NW24G36   29.88R WCI   5
LIVINGSTON     CLOUDY    19   9  65 NW14      29.91  WCI   6
MILES CITY     CLOUDY    25  14  63 NW24G35   29.84R WCI   9
BIG TIMBER     MOSUNNY   21   3  45 W26G35    29.90R WCI   4
FORSYTH          N/A     21  18  86 NW16G24   29.89R WCI   7
HARLOWTON        N/A     19   3  49 W24G30    29.88R WCI   2
LAUREL           N/A     23   1  38 W15       29.88R WCI  10
$$

REGIONAL REPORTS...DAKOTAS

CITY           SKY/WX    TMP DP  RH WIND       PRES   REMARKS
WILLISTON      LGT SNOW  22  17  81 NW32G39   29.66S VSB 3/4 WCI   3
MINOT          CLOUDY    27  22  81 SW12      29.55S WCI  17
DICKINSON      CLOUDY    21  17  84 NW24G31   29.63R FOG     WCI   4
BEACH          LGT SNOW  19  16  86 NW31G40   29.73R WCI   0
CROSBY         LGT SNOW  19  19 100 NW24G32   29.66R WCI   2
TIOGA            N/A     19  19 100 NW22G29   29.58S FOG     WCI   3
WATFORD CITY   MIX PCPN  23  18  80 W18G29    29.66R WCI   9
BISMARCK       SNOW      32  31  96 NW9       29.57F VSB 1/2 WCI  24
GRAND FORKS    CLOUDY    29  26  89 E10       29.66F WCI  20
FARGO          CLOUDY    33  28  81 E10       29.59F WCI  25
BUFFALO SD       N/A     24  17  74 NW39G52   29.58R WCI   5
RAPID CITY     CLOUDY    27  17  66 NW35G53   29.64R WCI  10
$$

REGIONAL REPORTS...WYOMING/IDAHO/WASHINGTON

CITY           SKY/WX    TMP DP  RH WIND       PRES   REMARKS
GILLETTE       LGT SNOW  19  15  84 NW23      29.74R FOG     WCI   2
SHERIDAN       CLOUDY    21  16  81 NW20      29.83  WCI   6
BUFFALO WY     LGT SNOW  20  13  74 N30G37    29.75R WCI   1
CODY           SUNNY     19  11  70 N12       29.83R WCI   7
YELLOWSTONE LA   N/A      8  -1  66 W10G16    29.77R WCI  -6
IDAHO FALLS    MOSUNNY   23  12  62 SW14      30.00  WCI  11
SALMON         SUNNY     21   7  53 CALM      30.04R
BOISE          SUNNY     28  18  66 SE5       30.16
SPOKANE        PTSUNNY   25  20  81 SE7       30.07R WCI  17
$$

REGIONAL REPORTS...ALBERTA

CITY           SKY/WX    TMP DP  RH WIND       PRES   REMARKS
EDMONTON       CLOUDY     1  -6  71 NW12G21   30.15R WCI -15
CALGARY        PTSUNNY    5  -4  66 N14       30.03R WCI -12
LETHBRIDGE     LGT SNOW   9   1  72 NW16G25   30.09S DRFTSNOWWCI  -9
MEDICINE HAT   PTSUNNY    7   0  72 W14G20    30.09R WCI -10
WATERTON GATE    N/A      9   3  78 NE2         N/A
CARDSTON         N/A      9   3  78 N2          N/A
MILK RIVER       N/A      5   0  78 NW21G26     N/A  WCI -16
ONEFOUR          N/A      3  -2  78 NW23G32     N/A  WCI -19
$$

REGIONAL REPORTS...SASKATCHEWAN

CITY           SKY/WX    TMP DP  RH WIND       PRES   REMARKS
SWIFT CURRENT  CLOUDY     3   0  85 NW28G36   29.88R WCI -21
REGINA         FLURRIES  16  12  86 NW22      29.79R WCI  -2
SASKATOON      FLURRIES  14   7  73 N13G22    29.91R WCI   0
CYPRESS HILLS    N/A     -4  -9  77 NW17G33     N/A  WCI -26
VAL MARIE        N/A      7   0  72 NW24G30     N/A  WCI -15
ROCKGLEN         N/A      5   1  85 NW28G35     N/A  WCI -18
$$




USA.gov is the U.S. government's official web portal to all federal, state and local government web resources and services.